Location: Kalwaria Zebrzydowska
(49.8686°N, 19.6647°E)
Time: 15:20:52
(UTC+01:00)

ISS - Pass Details

Date: 30 January 2019
Orbit: 403 x 411 km, 51.6° (Epoch: 23 February)

Event Time Altitude Azimuth Distance (km) Brightness Sun altitude
Rises 19:00:14 0° 279° (W) 2,339 1.4 -23.9°
Reaches altitude 10° 19:02:20 10° 282° (WNW) 1,479 0.0 -24.2°
Enters shadow 19:04:21 33° 295° (WNW) 716 -2.1 -24.5°
